ORBCOMM FM 16 DEB, 44024

Orbit data source: Space-Track

ORBCOMM FM 16 DEB, 44024 is space debris in LEO originally from a launch on Sun, 02 Aug 1998 UTC launched from the Pegasus Launch, Eastern Range Air Space (ERAS). Debris objects in space refer to the collection of defunct objects orbiting the Earth. Examples of debris include non-operational satellites, rocket bodies, and fragments generated from explosions, collisions, or faulty payload assembly.

Loading next visibility...
Identifier
44024, 1998-046T
Orbit
LEO
Country
Flag of USUS / ORB
Related business
Manufacturer
OSC-Germantown
Mission
Spacecraft
Bus & Motor
MICROSTAR, Unknown motor
Mass
Unknown
Launch date (UTC)
1998-08-02 (27 years ago)
Launch vehicle
Unknown
Launch site
Pegasus Launch, Eastern Range Air Space (ERAS)
Object type
Payload
Rocket body
Debris
Shape & HBR
Unknown shape, 0.1 m
Radar Cross Section
Small (<0.1 m²)

Expand to show TLE details & history
Last TLE update: 1 day ago

TLE from 1 day ago
0 ORBCOMM FM 16 DEB
1 44024U 98046T   25293.40543038  .00001749  00000-0  61906-3 0  9995
2 44024  44.9958 300.3062 0006505 227.3201 132.7100 14.38017934357146
Epoch: 2025-10-20T09:43Z
TLE epoch observation values (Epoch: 2025-10-20T09:43:49.184Z)
Latitude
-0°
Longitude
125.24305°
Altitude
768.206 km
Speed
7.47 km/s
True Right ascension
20h 01m 13s
True Declination
0° 00' 00"
Sunlit
Object was in daylight at epoch
Visualization orbit readout
Latitude
Unknown
Longitude
Unknown
Altitude
Unknown
Speed
Unknown
Apparent Right ascension
Unknown
Apparent Declination
Unknown
Sunlit
N/A
Visualization observer readout
Local Sidereal Time
10:04:01
Azimuth
Unknown
Elevation
Unknown
Doppler factor
Unknown
Orbital elements
Apogee altitude
771.249 km
Perigee altitude
761.954 km
Semi-major axis
7,144.738 km
Eccentricity
0.00065
Inclination
44.9958°
RAAN
300.3062°
Arg. of periapsis
227.3201°
True anomaly
132.76474°
Mean anomaly
132.71°
Eccentric anomaly
132.73737°
Mean motion
3.59388 °/min
Orbital period
100.17 mins
BSTAR
0.00061906
Loading maneuver chart data...
Computing Atmospheric mass density...
Loading historical data...
Loading historical data...
Loading historical data...
Loading historical data...
Loading historical data...
Loading historical data...
Loading historical data...

Documentation

Showing up to 5 results
|